STARLINK-1015 (44721 NORAD) Tracking and Keplerian Element Data

This shows tracking and keplerian element data for the satellite.

Feedback or suggestion? Click here.




ElementValue
Catalog44721
NameSTARLINK-1015
Epoch Orbit2150
Epoch Day88.25001157
Epoch Year2020
RAAN219.1433
Inclination52.9892
Eccentricity0.0001309
Argument of Perigee87.6733
Mean Anonmoly75.8611
Mean Motion15.05549158
Decay Rate0.00117289
L11 44721U 19074J 20088.25001157 .00117289 00000-0 79426-2 0 9996
L22 44721 52.9892 219.1433 0001309 87.6733 75.8611 15.05549158 21504

Live tracking and technical data element details for STARLINK-1015 (NORAD 44721). STARLINK-1015 can be tracked NOW for your location showing map with azimuth and elevation plus other details from your city location.

Track the satellite on the map from your city or location and see movement details for azimuth, elevation, latitude, longitude, range, height, and movement on the map or in text.







IsCatalogInMostPopularTable: catalog: 44721, numindb: 26
Update: records affected: 1



GetName: 44721 STARLINK-1015

Hit Count: updated at: Sat, 28 Mar 2020 20:34:30 GMT